| time (UTC) | temp C | wind direction | speed KPH | gust KPH | rain 1hr cm | rain 24hr cm | rain mn cm | humidity % | barometer mb |
| 20260510104513 | 18 | 73 | 0.0 | 0.0 | 0.00 | 5.87 | 0.03 | 97 | 1013.3 |
| 20260510103011 | 18 | 68 | 0.0 | 3.2 | 0.00 | 5.87 | 0.03 | 97 | 1013.1 |
| 20260510101512 | 18 | 83 | 0.0 | 0.0 | 0.00 | 5.87 | 0.03 | 97 | 1013.0 |
| 20260510100008 | 18 | 86 | 0.0 | 0.0 | 0.00 | 5.87 | 0.03 | 97 | 1012.8 |
| 20260510094507 | 18 | 86 | 0.0 | 0.0 | 0.00 | 5.87 | 0.03 | 97 | 1012.8 |
| 20260510093006 | 18 | 86 | 0.0 | 0.0 | 0.00 | 5.87 | 0.03 | 97 | 1012.9 |
| 20260510091505 | 18 | 86 | 0.0 | 0.0 | 0.00 | 5.87 | 0.03 | 97 | 1012.8 |
| 20260510090005 | 18 | 86 | 0.0 | 0.0 | 0.00 | 5.87 | 0.03 | 97 | 1012.7 |
| 20260510084504 | 18 | 86 | 0.0 | 0.0 | 0.00 | 5.87 | 0.03 | 97 | 1012.7 |
| 20260510083008 | 18 | 86 | 0.0 | 0.0 | 0.00 | 5.87 | 0.03 | 97 | 1012.7 |
| 20260510081503 | 18 | 86 | 0.0 | 0.0 | 0.03 | 5.87 | 0.03 | 97 | 1012.7 |
| 20260510080001 | 18 | 86 | 0.0 | 0.0 | 0.03 | 5.87 | 0.03 | 97 | 1012.5 |
| 20260510074607 | 18 | 86 | 0.0 | 0.0 | 0.03 | 5.87 | 0.03 | 97 | 1012.4 |
| 20260510073100 | 18 | 86 | 0.0 | 0.0 | 0.03 | 5.87 | 0.03 | 97 | 1012.4 |
| 20260510071603 | 18 | 86 | 0.0 | 0.0 | 0.00 | 5.87 | 0.00 | 97 | 1012.2 |
| 20260510070109 | 18 | 356 | 0.0 | 0.0 | 0.00 | 5.87 | 0.00 | 97 | 1012.3 |
| 20260510064602 | 18 | 356 | 0.0 | 0.0 | 0.00 | 5.87 | 0.00 | 96 | 1012.2 |
| 20260510063100 | 19 | 61 | 0.0 | 0.0 | 0.00 | 5.87 | 0.00 | 96 | 1012.1 |
| 20260510061554 | 19 | 60 | 0.0 | 0.0 | 0.00 | 5.87 | 0.00 | 96 | 1012.3 |
| 20260510060054 | 19 | 316 | 0.0 | 0.0 | 0.00 | 5.87 | 0.00 | 96 | 1012.6 |
| 20260510054559 | 19 | 309 | 0.0 | 3.2 | 0.00 | 5.87 | 0.00 | 96 | 1012.7 |
| 20260510053050 | 19 | 310 | 0.0 | 6.4 | 0.00 | 5.87 | 0.00 | 96 | 1012.7 |
| 20260510051548 | 20 | 63 | 0.0 | 0.0 | 0.00 | 5.87 | 0.00 | 96 | 1012.4 |
| 20260510050046 | 20 | 33 | 0.0 | 1.6 | 0.00 | 5.87 | 5.87 | 96 | 1012.2 |
| 20260510044549 | 20 | 159 | 0.0 | 11.3 | 0.00 | 5.87 | 5.87 | 96 | 1011.7 |
| 20260510043045 | 20 | 160 | 3.2 | 9.7 | 0.00 | 5.87 | 5.87 | 97 | 1011.5 |
| 20260510041550 | 20 | 181 | 4.8 | 11.3 | 0.00 | 5.87 | 5.87 | 97 | 1011.7 |
| 20260510040043 | 20 | 205 | 3.2 | 12.9 | 0.00 | 5.87 | 5.87 | 97 | 1012.2 |
| 20260510034547 | 20 | 189 | 3.2 | 11.3 | 0.00 | 5.87 | 5.87 | 97 | 1012.5 |
| 20260510033058 | 20 | 236 | 3.2 | 11.3 | 0.00 | 5.87 | 5.87 | 97 | 1012.4 |
| 20260510031544 | 20 | 175 | 0.0 | 0.0 | 0.00 | 5.87 | 5.87 | 97 | 1012.9 |
| 20260510030042 | 20 | 212 | 0.0 | 0.0 | 0.00 | 5.87 | 5.87 | 97 | 1013.4 |
| 20260510024544 | 20 | 153 | 0.0 | 0.0 | 0.00 | 5.87 | 5.87 | 97 | 1013.3 |
| 20260510023044 | 20 | 336 | 0.0 | 0.0 | 0.00 | 5.87 | 5.87 | 97 | 1013.2 |
| 20260510021542 | 20 | 336 | 0.0 | 0.0 | 0.00 | 5.87 | 5.87 | 97 | 1013.2 |
| 20260510020040 | 20 | 336 | 0.0 | 0.0 | 0.00 | 5.87 | 5.87 | 97 | 1013.0 |
| 20260510014539 | 20 | 336 | 0.0 | 0.0 | 0.00 | 5.87 | 5.87 | 97 | 1012.9 |
| 20260510013041 | 20 | 98 | 0.0 | 0.0 | 0.00 | 5.87 | 5.87 | 97 | 1012.9 |
| 20260510011539 | 20 | 131 | 0.0 | 0.0 | 0.00 | 5.87 | 5.87 | 97 | 1012.5 |
| 20260510010037 | 20 | 131 | 0.0 | 4.8 | 0.00 | 5.87 | 5.87 | 97 | 1012.3 |
| 20260510004537 | 20 | 120 | 1.6 | 0.0 | 0.00 | 0.00 | 5.87 | 97 | 1011.9 |
| 20260510003052 | 20 | 140 | 0.0 | 11.3 | 0.00 | 5.87 | 5.87 | 97 | 1011.9 |
| 20260510001542 | 20 | 153 | 0.0 | 6.4 | 0.00 | 5.87 | 5.87 | 97 | 1011.5 |
| 20260510000041 | 20 | 127 | 0.0 | 4.8 | 0.00 | 5.87 | 5.87 | 97 | 1011.7 |
| 20260509234544 | 20 | 141 | 0.0 | 3.2 | 0.03 | 5.87 | 5.87 | 97 | 1011.5 |
| 20260509233034 | 20 | 143 | 0.0 | 4.8 | 0.03 | 5.87 | 5.87 | 97 | 1011.7 |
| 20260509231534 | 20 | 77 | 0.0 | 3.2 | 0.03 | 5.87 | 5.87 | 97 | 1011.5 |
| 20260509230033 | 20 | 77 | 0.0 | 0.0 | 0.08 | 6.93 | 5.87 | 97 | 1011.7 |
| 20260509224532 | 20 | 275 | 0.0 | 1.6 | 0.10 | 6.91 | 5.82 | 97 | 1012.2 |
| 20260509223032 | 20 | 288 | 1.6 | 3.2 | 0.15 | 6.91 | 5.82 | 97 | 1012.1 |
| 20260509221533 | 19 | 243 | 0.0 | 0.0 | 0.28 | 6.91 | 5.82 | 97 | 1011.7 |
| 20260509220030 | 19 | 83 | 0.0 | 0.0 | 0.25 | 6.93 | 5.77 | 97 | 1011.3 |
| 20260509214537 | 19 | 82 | 0.0 | 0.0 | 0.23 | 6.88 | 5.71 | 97 | 1011.7 |
| 20260509213034 | 19 | 82 | 0.0 | 0.0 | 0.15 | 6.81 | 5.66 | 97 | 1011.7 |
| 20260509211530 | 19 | 282 | 0.0 | 0.0 | 0.05 | 6.71 | 5.56 | 97 | 1012.2 |
| 20260509210031 | 19 | 238 | 0.0 | 0.0 | 0.03 | 7.01 | 5.54 | 97 | 1011.8 |
| 20260509204537 | 19 | 135 | 0.0 | 4.8 | 0.03 | 6.99 | 5.51 | 97 | 1011.5 |
| 20260509203028 | 19 | 77 | 1.6 | 9.7 | 0.08 | 6.99 | 5.51 | 97 | 1011.2 |
| 20260509201528 | 18 | 103 | 1.6 | 9.7 | 0.13 | 6.99 | 5.51 | 97 | 1011.2 |
| 20260509200036 | 18 | 88 | 1.6 | 6.4 | 0.18 | 9.98 | 5.51 | 97 | 1011.6 |
| 20260509194536 | 18 | 88 | 0.0 | 0.0 | 0.25 | 9.96 | 5.49 | 97 | 1011.9 |
| 20260509193035 | 18 | 131 | 0.0 | 0.0 | 0.53 | 9.91 | 5.44 | 97 | 1012.7 |
| 20260509191526 | 18 | 79 | 0.0 | 3.2 | 0.69 | 9.86 | 5.38 | 97 | 1012.9 |
| 20260509190027 | 18 | 119 | 0.0 | 4.8 | 0.71 | 9.80 | 5.33 | 97 | 1012.9 |
| 20260509184523 | 18 | 136 | 0.0 | 6.4 | 1.12 | 9.70 | 5.23 | 97 | 1012.9 |
| 20260509183027 | 18 | 171 | 1.6 | 6.4 | 0.81 | 9.35 | 4.88 | 97 | 1013.4 |
| 20260509181522 | 18 | 109 | 1.6 | 8.0 | 0.64 | 9.17 | 4.70 | 97 | 1012.7 |
| 20260509180021 | 18 | 94 | 3.2 | 8.0 | 0.56 | 9.07 | 4.60 | 97 | 1012.4 |
| 20260509174521 | 18 | 109 | 0.0 | 6.4 | 0.10 | 8.59 | 4.11 | 97 | 1013.1 |
| 20260509173020 | 19 | 89 | 1.6 | 9.7 | 0.13 | 8.53 | 4.06 | 97 | 1012.6 |
| 20260509171524 | 19 | 197 | 0.0 | 9.7 | 0.15 | 8.53 | 4.06 | 97 | 1013.2 |
| 20260509170020 | 19 | 115 | 3.2 | 11.3 | 0.18 | 8.51 | 4.04 | 97 | 1012.7 |
| 20260509164520 | 19 | 100 | 3.2 | 16.1 | 0.69 | 8.48 | 4.01 | 97 | 1013.0 |
| 20260509163021 | 19 | 110 | 1.6 | 9.7 | 0.97 | 8.41 | 3.94 | 97 | 1013.1 |
| 20260509161519 | 19 | 88 | 4.8 | 19.3 | 1.02 | 8.36 | 3.89 | 97 | 1012.6 |
| 20260509160020 | 19 | 91 | 3.2 | 17.7 | 1.42 | 8.33 | 3.86 | 97 | 1013.3 |
| 20260509154519 | 19 | 94 | 1.6 | 6.4 | 1.27 | 7.77 | 3.30 | 97 | 1013.3 |
| 20260509153021 | 19 | 67 | 6.4 | 14.5 | 1.14 | 7.44 | 2.97 | 97 | 1013.1 |
| 20260509151517 | 18 | 77 | 3.2 | 11.3 | 1.12 | 7.32 | 2.84 | 97 | 1013.1 |
| 20260509150019 | 18 | 86 | 1.6 | 14.5 | 0.81 | 6.88 | 2.41 | 97 | 1013.0 |
| 20260509144516 | 18 | 90 | 1.6 | 8.0 | 0.46 | 6.50 | 2.03 | 97 | 1013.3 |
| 20260509143020 | 18 | 94 | 1.6 | 8.0 | 0.28 | 6.30 | 1.83 | 97 | 1013.0 |
| 20260509141515 | 18 | 91 | 0.0 | 6.4 | 0.38 | 6.20 | 1.73 | 97 | 1012.9 |
| 20260509140013 | 18 | 79 | 1.6 | 8.0 | 0.61 | 6.05 | 1.57 | 97 | 1012.6 |
| 20260509134512 | 18 | 75 | 1.6 | 8.0 | 1.57 | 6.05 | 1.57 | 96 | 1012.4 |
| 20260509133012 | 18 | 72 | 0.0 | 6.4 | 1.52 | 5.99 | 1.52 | 96 | 1012.9 |
| 20260509131524 | 18 | 88 | 3.2 | 8.0 | 1.35 | 5.82 | 1.35 | 96 | 1013.4 |
| 20260509130016 | 18 | 155 | 1.6 | 14.5 | 0.97 | 5.44 | 0.97 | 95 | 1013.7 |
| 20260509124503 | 20 | 232 | 9.7 | 33.8 | 0.00 | 4.47 | 0.00 | 92 | 1012.8 |
| 20260509123002 | 22 | 250 | 0.0 | 3.2 | 0.00 | 4.47 | 0.00 | 95 | 1011.2 |
| 20260509121612 | 22 | 225 | 0.0 | 4.8 | 0.00 | 4.47 | 0.00 | 95 | 1010.7 |
| 20260509120057 | 21 | 92 | 0.0 | 6.4 | 0.00 | 4.47 | 0.00 | 95 | 1010.4 |
| 20260509114555 | 21 | 158 | 1.6 | 6.4 | 0.00 | 4.47 | 0.00 | 95 | 1010.4 |
| 20260509113058 | 21 | 157 | 0.0 | 4.8 | 0.00 | 4.47 | 0.00 | 95 | 1010.3 |
| 20260509111600 | 21 | 210 | 1.6 | 6.4 | 0.00 | 4.47 | 0.00 | 95 | 1010.0 |
| 20260509110052 | 21 | 195 | 0.0 | 0.0 | 0.00 | 4.47 | 0.00 | 95 | 1009.9 |